Location: Vihti�l�
(61.3833°N, 23.0667°E)
Time: 05:43:14
(UTC+00:00)

ALOS - Pass Details

Date: 29 November 2020
Orbit: 683 x 685 km, 97.9° (Epoch: 22 January)

Event Time Altitude Azimuth Distance (km) Brightness Sun altitude
Rises 03:42:59 0° 16° (NNE) 3,071 5.8 -22.7°
Reaches altitude 10° 03:45:14 10° 16° (NNE) 2,150 4.9 -22.5°
Maximum altitude 03:49:56 79° 291° (WNW) 709 2.1 -21.9°
Enters shadow 03:53:22 19° 206° (SSW) 1,638 4.0 -21.5°
